Location: Kopernik Observatory
(42.0014°N, 76.0372°W)
Time: 10:26:14
(UTC-05:00)

Daily predictions for brighter satellites

Satellite Brightness Start Highest point End
(mag) Time Altitude Azimuth Time Altitude Azimuth Time Altitude Azimuth
Meteor 2-19 Rocket 4.4 16:55:12 10° N 17:01:16 76° E 17:07:19 10° SSE
YAOGAN 1 3.2 16:58:06 10° SE 17:02:01 35° ENE 17:05:59 10° N
SPOT 3 Rocket 3.8 16:58:07 10° SE 17:03:01 46° ENE 17:07:57 10° N
Cosmos 2278 Rocket 2.2 17:00:33 10° SSW 17:06:10 75° ESE 17:11:50 10° NNE
Meteor 1-18 Rocket 4.3 17:01:20 10° S 17:06:56 65° E 17:12:40 10° NNE
USA 32 4.0 17:02:38 10° S 17:07:51 81° E 17:13:05 10° N
COSMOS 2487 3.1 17:04:52 10° N 17:08:13 36° ENE 17:11:33 10° SE
SL-8 R/B 3.9 17:04:21 10° WSW 17:09:06 68° NNW 17:13:53 10° ENE
Okean 1 3.6 17:05:52 10° SSE 17:09:45 47° E 17:13:40 10° NNE
SMAP 3.2 17:10:33 10° SSE 17:15:04 55° ENE 17:19:37 10° N
Cosmos 1346 Rocket 3.3 17:12:03 10° SSE 17:15:38 36° E 17:19:14 10° NNE
Cosmos 1455 Rocket 3.1 17:14:13 10° N 17:18:39 89° ENE 17:23:06 10° S
Genesis I 3.2 17:16:02 10° NNW 17:19:59 89° ENE 17:23:53 10° SSE
NOSS 2-1 (D) 4.2 17:19:17 10° S 17:22:41 31° ESE 17:25:53 13° ENE
NOSS 2-1 (C) 4.2 17:19:58 10° S 17:23:23 31° ESE 17:26:33 13° ENE
Cosmos 1833 Rocket 3.1 17:18:56 10° N 17:24:14 40° ENE 17:29:31 10° SE
ISS -1.2 17:23:32 10° NW 17:25:49 17° N 17:28:02 10° NNE
Cosmos 1809 Rocket 4.5 17:25:00 10° N 17:31:04 60° E 17:37:05 10° SSE
Cosmos 2082 Rocket 2.3 17:25:51 10° NNW 17:31:25 53° ENE 17:36:58 10° SE
IDEFIX/ARIANE 42P 2.5 17:26:54 10° SSE 17:32:05 82° ENE 17:37:18 10° N
Thor Agena Rocket 3.6 17:30:52 10° NNE 17:36:07 85° ESE 17:41:25 10° SSW
Cosmos 1500 3.1 17:35:57 10° N 17:39:49 83° E 17:43:40 10° S
Cosmos 1743 3.2 17:36:16 10° N 17:39:54 37° ENE 17:43:30 10° SSE
Tiangong 1 0.9 17:37:36 10° WSW 17:40:39 81° SSE 17:42:20 24° E
ASTRO F (AKARI) 4.4 17:38:28 11° NNE 17:41:20 50° ESE 17:44:25 10° S
NOSS 2-1 (E) 3.7 17:38:17 10° SSW 17:41:58 45° ESE 17:44:41 19° NE
TIMED 4.5 17:37:48 10° S 17:42:07 68° ESE 17:46:27 10° NNE
Okean 1-7 Rocket 3.9 17:38:06 10° SSE 17:42:21 44° E 17:46:37 10° NNE
Meteor 1-19 Rocket 4.5 17:40:59 10° SSE 17:46:33 50° E 17:52:11 10° NNE
Meteor 1-28 Rocket 4.5 17:46:16 21° E 17:46:39 21° E 17:49:36 10° SE
Cosmos 1934 Rocket 4.5 17:43:02 10° N 17:48:44 36° ENE 17:54:28 10° SE
Cosmos 1484 Rocket 2.7 17:50:27 10° SSE 17:54:06 55° ENE 17:57:45 10° N
USA 234 3.4 17:53:20 15° NE 17:58:50 76° NW 18:05:21 10° WSW
Meteor 2-21 4.5 17:52:53 10° N 17:59:05 85° W 18:05:13 10° S
Cosmos 1975 4.1 17:55:44 10° NNW 17:59:37 44° W 18:03:27 10° SSW
Cosmos 1606 Rocket 4.0 18:02:07 10° N 18:06:20 39° ENE 18:10:31 10° SSE
CZ-4 R/B 3.6 18:03:00 10° SSW 18:06:39 29° W 18:10:17 10° NW
Meteor 1-13 Rocket 4.3 18:03:11 10° S 18:08:53 87° W 18:14:46 10° N
Meteor 2-9 Rocket 4.2 18:04:14 10° N 18:09:29 49° ENE 18:14:38 10° SSE
MSX 4.1 18:03:50 10° S 18:09:34 72° WSW 18:15:19 10° NNW
Cosmos 2239 Rocket 4.4 18:03:28 10° N 18:09:40 68° E 18:15:46 10° SSE
Meteor 1-23 Rocket 4.4 18:05:05 10° SSE 18:10:31 49° E 18:14:52 16° NNE
Cosmos 2369 Rocket 3.9 18:07:08 10° SE 18:08:55 15° ESE 18:08:55 15° ESE
COSMO-SKYMED 1 2.4 18:09:49 13° NNE 18:13:39 80° ESE 18:17:59 10° S
Abrixas 3.4 18:11:09 10° WNW 18:14:00 46° SW 18:15:00 31° SSE
NOSS 3-4 (A) 3.8 18:07:36 10° NNW 18:14:33 64° NE 18:21:55 10° SE
Meteor 2-4 Rocket 3.6 18:09:23 10° S 18:14:39 60° E 18:19:06 15° NNE
NOSS 3-4 (C) 3.8 18:07:42 10° NNW 18:14:39 63° NE 18:22:01 10° SE
CZ-2C R/B 4.0 18:10:11 10° SSW 18:14:51 38° W 18:19:40 10° NNW
Meteor 2-14 Rocket 4.5 18:11:00 10° N 18:17:11 84° W 18:23:18 10° S
CZ-3B DEB 3.4 18:15:18 10° W 18:19:42 43° NNW 18:25:58 21° NE
Cosmos 407 Rocket 3.7 18:15:51 10° N 18:20:45 43° ENE 18:21:59 36° E
Cosmos 2056 Rocket 3.5 18:16:09 10° S 18:21:25 61° ESE 18:23:51 31° NE
Cosmos 1821 Rocket 3.8 18:15:33 10° N 18:21:40 80° E 18:27:46 10° S
Cosmos 921 Rocket 3.8 18:21:25 10° SW 18:25:33 50° WNW 18:28:57 15° N
Cosmos 1025 Rocket 2.9 18:21:12 10° S 18:25:35 84° E 18:28:12 24° N
NOAA 12 4.0 18:20:27 10° SSE 18:25:37 61° ENE 18:30:49 10° N
Cosmos 1605 Rocket 4.0 18:26:11 10° N 18:32:21 55° ENE 18:38:24 10° SSE
Cosmos 1624 Rocket 3.9 18:29:15 10° SSW 18:34:26 86° ESE 18:36:48 34° NNE
Cosmos 1371 Rocket 4.3 18:34:49 10° SSW 18:40:09 70° WNW 18:43:24 24° N
METEOR-M 4.0 18:43:20 10° SSE 18:48:40 83° ENE 18:54:02 10° NNW
Cosmos 2278 Rocket 4.5 18:46:58 10° W 18:50:53 19° NW 18:54:50 10° N
Cosmos 1666 3.6 18:50:23 10° NNW 18:54:07 47° W 18:57:50 10° SSW
BREEZE-M R/B 4.2 18:47:52 10° W 18:56:14 45° NNW 18:57:05 42° N
GEOS 3 Rocket 3.4 19:00:07 85° E 19:00:11 85° NE 19:05:21 10° NW
Cosmos 1727 Rocket 3.8 19:03:57 10° S 19:10:10 85° E 19:10:52 72° NNE
FALCON 9 R/B 3.4 19:05:03 10° W 19:23:09 53° SSW 19:24:35 47° SSE
USA 234 4.4 19:40:41 32° N 19:41:14 32° NNW 19:46:52 10° W
Cosmos 2369 Rocket 3.9 19:48:28 10° SSW 19:50:47 25° SW 19:50:47 25° SW
